Weather History for Saint Simons Island, GA

Change the Weather History Date:

Thursday, May 1, 2014

  Actual Average Record
Temperature  
Mean Temperature 74 °F 70 °F  
Max Temperature 79 °F 79 °F 93 °F (1981)
Min Temperature 69 °F 62 °F 50 °F (1963)
Degree Days  
Heating Degree Days 0 1  
Month to date heating degree days 0 1  
Since 1 July heating degree days 1493 1485  
Cooling Degree Days 9 6  
Month to date cooling degree days 9 6  
Year to date cooling degree days 147 149  
Growing Degree Days 24 (Base 50)    
Moisture  
Dew Point 67 °F    
Average Humidity 85    
Maximum Humidity 100    
Minimum Humidity 69    
Precipitation  
Precipitation 0.00 in 0.05 in 1.19 in (1976)
Month to date precipitation 0.00 0.05  
Year to date precipitation 16.94 13.11  
Snow  
Snow 0.00 in - 0.00 in ()
Month to date snowfall 0.0  
Since 1 July snowfall T  
Snow Depth 0.00 in    
Sea Level Pressure  
Sea Level Pressure 29.98 in    
Wind  
Wind Speed 4 mph (WSW)    
Max Wind Speed 16 mph    
Max Gust Speed 22 mph    
Visibility 10 miles    
Events Thunderstorm    
T = Trace of Precipitation, MM = Missing Value Source: NWS Daily Summary

Daily Weather History Graph

Daily Weather History Graph

Search for Another Location

Airport:

Trip Planner

Search our weather history database for the weather conditions in past years. The results will help you decide how hot, cold, wet, or windy it might be!

Date:

Astronomy

May. 01, 2014 Rise Set
Actual Time 6:40 AM EDT 8:04 PM EDT
Civil Twilight 6:15 AM EDT 8:30 PM EDT
Nautical Twilight 5:44 AM EDT 9:01 PM EDT
Astronomical Twilight 5:12 AM EDT 9:33 PM EDT
Moon 8:31 AM EDT (5/1) 10:32 PM EDT (5/1)
Length of Visible Light 14h 15m
Length of Day
13h 23m
Waxing Crescent, 6% of the Moon is Illuminated
May 1
Waxing Crescent
May 6
First Quarter
May 14
Full
May 21
Last Quarter
May 28
New

Hourly Weather History & Observations

Time (EDT) Temp. Dew Point Humidity Pressure Visibility Wind Dir Wind Speed Gust Speed Precip Events Conditions
12:53 AM 70.0 °F 69.1 °F 97% 29.99 in 7.0 mi Calm Calm - N/A   Clear
1:53 AM 70.0 °F 68.0 °F 93% 29.99 in 8.0 mi Calm Calm - N/A   Clear
2:53 AM 71.1 °F 69.1 °F 93% 29.98 in 10.0 mi SSW 3.5 mph - N/A   Clear
3:53 AM 71.1 °F 68.0 °F 90% 29.96 in 10.0 mi SSE 3.5 mph - N/A   Scattered Clouds
4:53 AM 71.1 °F 68.0 °F 90% 29.97 in 10.0 mi Calm Calm - N/A   Clear
5:53 AM 70.0 °F 69.1 °F 97% 29.98 in 10.0 mi Calm Calm - N/A   Clear
6:53 AM 70.0 °F 66.9 °F 90% 29.99 in 10.0 mi Calm Calm - N/A   Mostly Cloudy
7:53 AM 71.1 °F 64.9 °F 81% 30.00 in 10.0 mi NNW 3.5 mph - N/A   Overcast
8:46 AM 72.0 °F 64.0 °F 76% 30.01 in 10.0 mi Variable 3.5 mph - N/A   Overcast
8:53 AM 72.0 °F 64.0 °F 76% 30.01 in 10.0 mi NNW 3.5 mph - N/A   Overcast
9:53 AM 73.9 °F 64.9 °F 73% 30.01 in 10.0 mi Variable 4.6 mph - N/A   Overcast
10:07 AM 73.4 °F 64.4 °F 73% 30.01 in 10.0 mi WNW 5.8 mph - N/A   Overcast
10:53 AM 73.4 °F 64.4 °F 73% 30.01 in 10.0 mi West 4.6 mph - N/A   Overcast
11:53 AM 75.0 °F 66.0 °F 73% 30.04 in 10.0 mi WNW 9.2 mph - N/A   Overcast
12:37 PM 75.0 °F 64.9 °F 71% 30.01 in 10.0 mi West 9.2 mph - N/A   Scattered Clouds
12:53 PM 75.0 °F 64.9 °F 71% 30.00 in 10.0 mi West 5.8 mph - N/A   Partly Cloudy
1:53 PM 77.0 °F 66.2 °F 69% 29.98 in 10.0 mi West 5.8 mph - N/A   Clear
2:53 PM 77.0 °F 66.9 °F 71% 29.98 in 10.0 mi SW 9.2 mph - N/A   Mostly Cloudy
3:34 PM 75.0 °F 68.0 °F 79% 29.98 in 10.0 mi West 9.2 mph - N/A   Overcast
3:53 PM 75.0 °F 68.0 °F 79% 29.97 in 10.0 mi West 8.1 mph - N/A   Overcast
4:53 PM 73.0 °F 68.0 °F 84% 29.96 in 9.0 mi WSW 4.6 mph - N/A   Mostly Cloudy
5:53 PM 73.0 °F 68.0 °F 84% 29.94 in 10.0 mi SW 4.6 mph - N/A   Mostly Cloudy
6:53 PM 73.0 °F 66.9 °F 81% 29.94 in 10.0 mi SW 4.6 mph - N/A   Clear
7:53 PM 72.0 °F 66.0 °F 81% 29.94 in 10.0 mi WSW 4.6 mph - N/A   Clear
8:27 PM 71.1 °F 66.0 °F 84% 29.95 in 10.0 mi WSW 4.6 mph - N/A Thunderstorm Clear
8:42 PM 71.1 °F 66.9 °F 87% 29.95 in 10.0 mi SW 3.5 mph - N/A   Clear
8:53 PM 71.6 °F 66.2 °F 83% 29.95 in 10.0 mi South 3.5 mph - N/A   Clear
9:53 PM 71.1 °F 66.0 °F 84% 29.95 in 10.0 mi Calm Calm - N/A   Clear
10:53 PM 70.0 °F 66.9 °F 90% 29.96 in 10.0 mi WSW 3.5 mph - N/A   Clear
11:53 PM 70.0 °F 66.9 °F 90% 29.97 in 10.0 mi West 4.6 mph - N/A   Partly Cloudy